This is the latest recevied weather packets stored in our database for station/object VE9LJW. If no packets are shown the sender has not sent any weather packets the latest 10 day(s).
| Time | Temp. | Humidity | Pressure | Rain* | Wind** | Luminosity | Snow |
|---|---|---|---|---|---|---|---|
| 1777986054 | 19.44° C | 66% | 1005.4 hPa | 0 mm | - | 445 W/m² | - |
| 1777985750 | 18.33° C | 69% | 1005.6 hPa | 0 mm | - | 458 W/m² | - |
| 1777985447 | 18.33° C | 71% | 1005.3 hPa | 0 mm | - | 388 W/m² | - |
| 1777985144 | 17.78° C | 71% | 1005.4 hPa | 0 mm | - | 362 W/m² | - |
| 1777984840 | 17.22° C | 73% | 1005.1 hPa | 0 mm | - | 250 W/m² | - |
| 1777984537 | 17.78° C | 74% | 1005.5 hPa | 0 mm | - | 147 W/m² | - |
| 1777984233 | 16.67° C | 74% | 1005.7 hPa | 0 mm | - | 268 W/m² | - |
| 1777983930 | 16.67° C | 75% | 1005.4 hPa | 0 mm | - | 182 W/m² | - |
| 1777983627 | 16.67° C | 75% | 1005.7 hPa | 0 mm | - | 146 W/m² | - |
| 1777983323 | 16.11° C | 75% | 1005.5 hPa | 0 mm | - | 245 W/m² | - |
| 1777983020 | 16.11° C | 75% | 1005.6 hPa | 0 mm | - | 228 W/m² | - |
| 1777982717 | 15.56° C | 77% | 1005.6 hPa | 0 mm | - | 256 W/m² | - |
| 1777982412 | 15° C | 78% | 1005.7 hPa | 0 mm | - | 248 W/m² | - |
| 1777982107 | 15° C | 79% | 1005.6 hPa | 0 mm | - | 188 W/m² | - |
| 1777981805 | 15° C | 80% | 1005.7 hPa | 0 mm | - | 188 W/m² | - |
| 1777981501 | 15° C | 79% | 1005.6 hPa | 0 mm | - | 196 W/m² | - |
| 1777981198 | 15° C | 79% | 1005.6 hPa | 0 mm | - | 191 W/m² | - |
| 1777980894 | 14.44° C | 81% | 1006 hPa | 0 mm | - | 166 W/m² | - |
| 1777980590 | 13.89° C | 82% | 1005.7 hPa | 0 mm | - | 113 W/m² | - |
| 1777980287 | 13.89° C | 83% | 1005.7 hPa | 0 mm | - | 95 W/m² | - |
| 1777979984 | 13.89° C | 83% | 1005.9 hPa | 0 mm | - | 125 W/m² | - |
| 1777979678 | 13.33° C | 84% | 1005.9 hPa | 0 mm | - | 120 W/m² | - |
| 1777979375 | 12.78° C | 85% | 1005.9 hPa | 0 mm | - | 119 W/m² | - |
| 1777979072 | 12.78° C | 85% | 1006 hPa | 0 mm | - | 124 W/m² | - |
| 1777978769 | 12.78° C | 85% | 1006 hPa | 0 mm | - | 130 W/m² | - |
* Rain latest hour (hover to see other rain measurements)
** Current wind speed in m/s (hover to see current wind gust speed)